www.pogodaiklimat.ru

Погода и климат >> Архив погоды >> Россия >> Сахалинская область >> Москальво


АРХИВ ПОГОДЫ в Москальво

Время (UTC), дата Ветер
(напр.,м/с)
 
Видим.   Явления Облачность Т
(С)
Тd
(С)
f
(%)
Тe
(С)
Тes
(С)
Комфортность P
(гПа)
Po
(гПа)
Тmin
(С)
Tmax
(С)
R
(мм)
R24
(мм)
S
(см)
09 12.02 З 4-5
{6}
20 км ясно -25.4 -29.0 72 -36 -36 опасность
обморожения
1019.2 1018.3 -22.2
12 12.02 ЮЗ 4-5
{6}
20 км ясно -26.9 -30.5 71 -37 -37 опасность
обморожения
1019.1 1018.2
15 12.02 ЮЗ 4-5
{5}
20 км ясно -28.9 -32.2 73 -40 -40 опасность
обморожения
1018.9 1018.0
18 12.02 Ю 3-4
{5}
20 км ясно -30.3 -34.1 69 -40 -40 опасность
обморожения
1018.7 1017.8
21 12.02 Ю 3-4
{4}
20 км ясно -31.6 -35.4 69 -42 -42 опасность
обморожения
1018.9 1018.0 -31.6 114
00 13.02 Ю 1-2
{4}
50 км ясно -30.6 -35.4 63 -35 -33 опасность
обморожения
1019.7 1018.7 -32.6
03 13.02 З 1-2
{4}
50 км 1/0
[Ci fib]
-23.9 -29.0 63 -27 -23 1019.1 1018.2
06 13.02 штиль 0
{2}
50 км 1/0
[Ci fib]
-22.6 -27.8 62 -23 -22 1019.3 1018.4
09 13.02 З 1-2
{3}
20 км 1/0
[Ac lent]
-27.0 -30.0 76 -31 -31 опасность
обморожения
1020.2 1019.3 -20.0
12 13.02 штиль 0
{3}
20 км ясно -31.9 -35.6 70 -32 -32 опасность
обморожения
1020.3 1019.5
15 13.02 штиль 0
{3}
20 км ясно -33.2 -37.0 69 -33 -33 опасность
обморожения
1019.4 1018.5
18 13.02 З 2-3
{3}
20 км ясно -30.3 -33.4 74 -38 -38 опасность
обморожения
1018.6 1017.7
21 13.02 штиль 0
{4}
20 км 3/0
[Ci fib]
-33.2 -36.9 69 -33 -33 опасность
обморожения
1018.0 1017.1 -35.0 114
00 14.02 штиль 0
{3}
20 км 3/0
[Ci fib]
-29.9 -33.4 71 -30 -28 1017.8 1016.9
03 14.02 штиль 0
{3}
20 км 1/0
[Ac lent]
-24.9 -28.0 75 -25 -20 1016.2 1015.3
06 14.02 З 4-4
{4}
20 км ясно -23.8 -26.8 76 -34 -33 опасность
обморожения
1015.3 1014.4
09 14.02 З 3-4
{6}
20 км ясно -28.6 -31.8 74 -38 -38 опасность
обморожения
1015.1 1014.2 -23.3
12 14.02 СЗ 2-3
{4}
20 км ясно -30.1 -33.4 73 -38 -38 опасность
обморожения
1014.2 1013.3
15 14.02 Ю 3-3
{4}
20 км ясно -31.0 -34.5 71 -41 -41 опасность
обморожения
1012.7 1011.8
18 14.02 Ю 3-4
{4}
20 км ясно -33.2 -36.9 69 -43 -43 опасность
обморожения
1010.7 1009.8
21 14.02 ЮЗ 3-4
{6}
20 км 3/0
[Ac lent]
-28.6 -31.9 73 -38 -38 опасность
обморожения
1009.0 1008.1 -33.5 114
00 15.02 З 4-5
{5}
20 км 9/0
[Ac lent Cs]
-25.4 -28.3 77 -36 -35 опасность
обморожения
1008.8 1008.0
03 15.02 СЗ 3-4
{5}
20 км 9/0
[Cs]
-21.6 -24.1 80 -30 -27 1007.7 1006.8
06 15.02 З 4-6
{6}
20 км 9/0
[Ac lent Cs]
-20.0 -22.9 78 -29 -29 1006.4 1005.6
09 15.02 З 3-4
{7}
20 км 9/0
[Cs]
-23.8 -27.2 73 -32 -32 опасность
обморожения
1006.0 1005.1 -19.6
12 15.02 З 4-5
{6}
20 км ясно -24.0 -27.5 73 -34 -34 опасность
обморожения
1004.5 1003.6
15 15.02 З 4-4
{6}
20 км ясно -25.7 -28.5 77 -36 -36 опасность
обморожения
1002.4 1001.5
18 15.02 З 4-6
{7}
20 км ясно -25.0 -28.7 71 -35 -35 опасность
обморожения
1001.1 1000.2
21 15.02 З 5-7
{7}
20 км ясно -24.3 -27.7 73 -35 -35 опасность
обморожения
999.5 998.7 -26.6 114
00 16.02 ЮЗ 2-3
{7}
50 км 9/0
[Cs]
-24.3 -28.2 70 -31 -29 опасность
обморожения
998.6 997.7 -29.5
03 16.02 З 5-6
{6}
50 км 9/0
[Cs]
-17.8 -21.4 73 -27 -26 996.7 995.8
06 16.02 З 3-4
{6}
50 км 9/1 300 м
[Cb cap Cs]
-16.7 -20.0 76 -24 -23 995.8 994.9
09 16.02 З 4-5
{5}
20 км 1/0
[Ac lent]
-21.3 -23.6 82 -31 -31 опасность
обморожения
995.7 994.8 -15.8
12 16.02 Ю 2-3
{5}
20 км 9/0
[Ac As]
-20.2 -22.5 82 -26 -26 995.0 994.2
15 16.02 ЮЗ 3-3
{4}
20 км 9/0
[Ac As]
-19.8 -21.8 84 -27 -27 993.7 992.9
18 16.02 ЮЗ 1-1
{4}
20 км 9/0
[Cs]
-26.6 -29.7 75 -30 -30 993.3 992.5
21 16.02 ЮЗ 1-1
{2}
20 км 9/0
[Cs]
-25.5 -28.3 77 -29 -29 993.6 992.7 -26.8 114
00 17.02 штиль 0
{2}
4000 м дымка 9/0
[Cs]
-20.3 -22.6 82 -20 -18 994.4 993.5
03 17.02 СЗ 2-2
{2}
20 км 4/0
[Ac lent]
-14.2 -16.0 86 -19 -16 994.6 993.8
06 17.02 СЗ 3-3
{5}
20 км 3/0
[Ci fib]
-17.1 -19.3 83 -24 -23 996.0 995.2
09 17.02 СЗ 4-5
{6}
20 км 9/0
[Cs]
-22.6 -25.1 80 -32 -32 опасность
обморожения
999.0 998.2 -13.8
12 17.02 С 1-2
{5}
20 км 6/0
[Ci fib]
-25.5 -28.4 77 -29 -29 1000.9 1000.0
15 17.02 штиль 0
{2}
20 км 3/0
[Ci fib]
-27.8 -30.9 75 -28 -28 1001.8 1000.9
18 17.02 З 2-3
{3}
20 км ясно -26.5 -29.5 76 -33 -33 опасность
обморожения
1003.1 1002.3
21 17.02 З 2-2
{3}
20 км 3/0
[Ac lent]
-29.3 -32.4 74 -37 -37 опасность
обморожения
1004.9 1004.0 -30.0 114
00 18.02 Ю 1-2
{3}
20 км 9/0
[Cs]
-26.0 -29.0 76 -30 -28 1005.9 1005.0
03 18.02 СЗ 1-2
{3}
20 км 9/0
[Cs]
-18.3 -20.6 82 -21 -17 1006.9 1006.0
09 18.02 ЮЗ 2-2
{3}
20 км 1/0
[Ac lent]
-20.2 -22.3 83 -26 -26 1009.4 1008.6 -14.9
12 18.02 ЮЗ 3-4
{4}
20 км ясно -25.2 -27.9 78 -34 -34 опасность
обморожения
1010.5 1009.6
18 18.02 Ю 2-3
{4}
20 км ясно -24.6 -27.4 77 -31 -31 опасность
обморожения
1011.8 1010.9
21 18.02 ЮЗ 2-3
{5}
20 км ясно -25.0 -27.9 77 -32 -32 опасность
обморожения
1013.4 1012.5 -29.9 114
00 19.02 ЮЗ 1-2
{4}
50 км ясно -22.9 -25.7 78 -26 -24 1014.9 1014.0

 

Местоположение метеостанции Москальво (Сахалинская область, Россия): широта 53.57 долгота 142.50 высота над уровнем моря 6 м.

В архиве по умолчанию представлена погода в Москальво за последнюю неделю. Архивные данные за месяц целиком и за предыдущие месяцы, начиная с января 2011 года, Вы можете получить, выбрав интересующий диапазон дат из раскрывающегося списка и нажав кнопку "Ввод!".


*Определитесь, кто Вы:
робот инопланетянин человек

Внимание! Время в таблицах - всемирное. Для получения местного времени необходимо прибавить поправку, которая равна 11 ч.

Смотрите также архив погоды в соседних городах и на ближайших метеорологических станциях:

Погода в Оха (Сахалинская область, Россия) (28 км)
Погода в Одопту (Сахалинская область, Россия) (50 км)
Погода в Байдукове (Хабаровский край, Россия) (79 км)
Погода в Ныврово (Сахалинская область, Россия) (85 км)
Погода в Николаевск-на-Амуре (Хабаровский край, Россия) (128 км)
Погода в Джаоре (Хабаровский край, Россия) (132 км)
Погода в Вале (Сахалинская область, Россия) (142 км)
Погода в Литке (Хабаровский край, Россия) (151 км)
Погода в Погибях (Сахалинская область, Россия) (162 км)
Погода в Ногликах (Сахалинская область, Россия) (188 км)

Пояснения к столбцам:

Ветер - указаны скорость ветра в м/с - средняя за 10 мин, порывы в срок и между сроками (в фигурных скобках) и направление, откуда дует ветер: С - северный, СВ - северо-восточный, В - восточный, ЮВ - юго-восточный, Ю - южный, ЮЗ - юго-западный, З - западный, СЗ - северо-западный.
Видимость - горизонтальная дальность видимости в метрах или километрах. При видимости от 1 до 10 км при отсутствии осадков обычно наблюдается дымка, при ухудшении видимости до 1 км и менее - туман. В сухую погоду видимость может ухудшаться дымом, пылью или мглою.
Явления - указаны атмосферные явления, наблюдавшиеся в срок или в последний час перед сроком; фигурными скобками обозначены явления, наблюдавшиеся между сроками (за 1-3 часа до срока); квадратными скобками обозначены град или гололедные отложения с указанием их диаметра в мм.
Облачность - указаны через наклонную черту общая и нижняя облачность в баллах и высота нижней границы облаков в метрах; квадратными скобками обозначены формы облаков: Ci - перистые, Cs - перисто-слоистые, Cc - перисто-кучевые, Ac - высококучевые, As - высокослоистые, Sc - слоисто-кучевые, Ns - слоисто-дождевые, Cu - кучевые, Cb - кучево-дождевые. Подробнее классификацию облаков см. в Атласе облаков (PDF).
T - Температура воздуха - температура, измеренная на высоте 2 м над землей.
Td - Температура точки росы - температура, при понижении до которой содержащийся в воздухе водяной пар достигнет насыщения.
f - Относительная влажность воздуха - влажноcть воздуха, измеренная на высоте 2 м над землей.
Te - Эффективная температура - температура, которую ощущает одетый по сезону человек в тени. Характеристика душности погоды. При расчете учитывается влияние влажности воздуха и скорости ветра на теплоощущения человека.
Tes - Эффективная температура на солнце - температура, которую ощущает человек, с поправкой на солнечный нагрев. Характеристика знойности погоды. Зависит от высоты солнца над горизонтом, облачности и скорости ветра. Ночью, в пасмурную погоду, а также при ветре 12 м/с и более поправка равна нулю.
P - Атмосферное давление - приведенное к уровню моря атмосферное давление.
Po - Атмосферное давление - измеренное на уровне метеостанции атмосферное давление.
Tmin - Минимальная температура - минимум температуры воздуха на высоте 2 м над землей.
Tmax - Максимальная температура - максимум температуры воздуха на высоте 2 м над землей.
R - Количество осадков - Количество выпавших осадков за период времени, мм. При наведении курсора мыши на число - период времени, за который выпало указанное количество осадков.
R24 - Количество осадков - Количество выпавших осадков за 24 часа, мм.
S - Снежный покров - Высота снежного покрова, см. При наведении курсора мыши на число - состояние снежного покрова и степень покрытия местности в баллах.